When you browse on this site, cookies collect data to enhance your experience and personalize the content and advertising you see.
Visit our Privacy Policy to learn more. By continuing to use the site, you agree to this use of cookies and data.
  • In Österreich
  • Länderverzeichnis
  • Für 7 Tage
  • Wassertemperatur
  • Wetterkarte
  • News
  • Widgets
  • user-avatar
    Anmelden

    Stündliche Wetter Simijaca

    Heute, 26 Januar, Sonntag

    Zeit Temperatur Niederschläge Wind Luftdruck Luftfeuchtigkeit
    00:00 +11°C° 0 mm 0 m/S 559 mmHg 97%
    01:00 +11°C° 0 mm 0 m/S 558 mmHg 97%
    02:00 +11°C° 0 mm 0 m/S 558 mmHg 97%
    03:00 +11°C° 0 mm 0 m/S 558 mmHg 96%
    04:00 +11°C° 0 mm 0 m/S 558 mmHg 96%
    05:00 +11°C° 0 mm 0 m/S 558 mmHg 95%
    06:00 +11°C° 0 mm 0 m/S 558 mmHg 95%
    07:00 +11°C° 0 mm 0 m/S 559 mmHg 94%
    08:00 +13°C° 0.1 mm 0 m/S 560 mmHg 88%
    09:00 +15°C° 0.1 mm 0 m/S 561 mmHg 82%
    10:00 +18°C° 0.1 mm 1 m/S 562 mmHg 76%
    11:00 +19°C° 0.2 mm 1 m/S 562 mmHg 76%
    12:00 +19°C° 0.2 mm 1 m/S 561 mmHg 77%
    13:00 +19°C° 0.2 mm 1 m/S 561 mmHg 77%
    14:00 +18°C° 0.6 mm 1 m/S 560 mmHg 81%
    15:00 +16°C° 0.6 mm 1 m/S 559 mmHg 86%
    16:00 +15°C° 0.6 mm 1 m/S 558 mmHg 90%
    17:00 +13°C° 0.4 mm 0 m/S 558 mmHg 93%
    18:00 +13°C° 0.4 mm 0 m/S 558 mmHg 95%
    19:00 +12°C° 0.4 mm 0 m/S 558 mmHg 97%
    20:00 +12°C° 0.3 mm 0 m/S 558 mmHg 97%
    21:00 +12°C° 0.3 mm 0 m/S 559 mmHg 97%
    22:00 +12°C° 0.3 mm 0 m/S 559 mmHg 97%
    23:00 +11°C° 0.1 mm 0 m/S 559 mmHg 97%

    Morgen, 27 Januar, Montag

    Zeit Temperatur Niederschläge Wind Luftdruck Luftfeuchtigkeit
    00:00 +11°C° 0.1 mm 0 m/S 558 mmHg 97%
    01:00 +11°C° 0.1 mm 0 m/S 558 mmHg 97%
    02:00 +11°C° 0.1 mm 0 m/S 558 mmHg 97%
    03:00 +10°C° 0.1 mm 0 m/S 557 mmHg 97%
    04:00 +10°C° 0.1 mm 0 m/S 557 mmHg 97%
    05:00 +10°C° 0.1 mm 0 m/S 558 mmHg 96%
    06:00 +11°C° 0.1 mm 0 m/S 558 mmHg 95%
    07:00 +11°C° 0.1 mm 0 m/S 559 mmHg 94%
    08:00 +13°C° 0.2 mm 0 m/S 560 mmHg 89%
    09:00 +14°C° 0.2 mm 0 m/S 561 mmHg 83%
    10:00 +18°C° 0.2 mm 1 m/S 562 mmHg 78%
    11:00 +19°C° 0.6 mm 1 m/S 562 mmHg 76%
    12:00 +19°C° 0.6 mm 1 m/S 561 mmHg 75%
    13:00 +19°C° 0.6 mm 1 m/S 561 mmHg 74%
    14:00 +19°C° 1.1 mm 1 m/S 560 mmHg 78%
    15:00 +18°C° 1.1 mm 1 m/S 559 mmHg 81%
    16:00 +16°C° 1.1 mm 1 m/S 559 mmHg 85%
    17:00 +15°C° 0.9 mm 1 m/S 559 mmHg 89%
    18:00 +13°C° 0.9 mm 0 m/S 558 mmHg 93%
    19:00 +12°C° 0.9 mm 0 m/S 558 mmHg 97%
    20:00 +12°C° 0.4 mm 0 m/S 558 mmHg 97%
    21:00 +11°C° 0.4 mm 0 m/S 559 mmHg 97%
    22:00 +11°C° 0.4 mm 0 m/S 559 mmHg 97%
    23:00 +11°C° 0.1 mm 0 m/S 558 mmHg 97%

    übermorgen, 28 Januar, Dienstag

    Zeit Temperatur Niederschläge Wind Luftdruck Luftfeuchtigkeit
    00:00 +10°C° 0.1 mm 0 m/S 558 mmHg 97%
    01:00 +10°C° 0.1 mm 0 m/S 557 mmHg 97%
    02:00 +10°C° 0.1 mm 0 m/S 557 mmHg 97%
    03:00 +9°C° 0.1 mm 0 m/S 557 mmHg 96%
    04:00 +9°C° 0.1 mm 0 m/S 557 mmHg 96%
    05:00 +10°C° 0 mm 0 m/S 557 mmHg 95%
    06:00 +10°C° 0 mm 0 m/S 558 mmHg 94%
    07:00 +10°C° 0 mm 0 m/S 558 mmHg 94%
    08:00 +13°C° 0 mm 0 m/S 560 mmHg 86%
    09:00 +15°C° 0 mm 0 m/S 561 mmHg 79%
    10:00 +17°C° 0 mm 0 m/S 562 mmHg 72%
    11:00 +19°C° 0.2 mm 1 m/S 562 mmHg 71%
    12:00 +19°C° 0.2 mm 1 m/S 561 mmHg 71%
    13:00 +19°C° 0.2 mm 1 m/S 560 mmHg 71%
    14:00 +19°C° 0.6 mm 1 m/S 560 mmHg 76%
    15:00 +18°C° 0.6 mm 1 m/S 559 mmHg 81%
    16:00 +16°C° 0.6 mm 1 m/S 558 mmHg 86%
    17:00 +14°C° 0.4 mm 0 m/S 558 mmHg 90%
    18:00 +13°C° 0.4 mm 0 m/S 557 mmHg 93%
    19:00 +12°C° 0.4 mm 0 m/S 557 mmHg 97%
    20:00 +11°C° 0.3 mm 0 m/S 557 mmHg 97%
    21:00 +11°C° 0.3 mm 0 m/S 558 mmHg 97%
    22:00 +11°C° 0.3 mm 0 m/S 558 mmHg 98%
    23:00 +11°C° 0 mm 0 m/S 558 mmHg 98%

    29 Januar, Mittwoch

    Zeit Temperatur Niederschläge Wind Luftdruck Luftfeuchtigkeit
    00:00 +11°C° 0 mm 0 m/S 558 mmHg 97%
    01:00 +11°C° 0 mm 0 m/S 557 mmHg 97%
    02:00 +10°C° 0.1 mm 0 m/S 557 mmHg 97%
    03:00 +10°C° 0.1 mm 0 m/S 557 mmHg 97%
    04:00 +10°C° 0.1 mm 0 m/S 557 mmHg 96%
    05:00 +10°C° 0 mm 0 m/S 557 mmHg 96%
    06:00 +10°C° 0 mm 0 m/S 558 mmHg 95%
    07:00 +10°C° 0 mm 0 m/S 558 mmHg 94%
    08:00 +14°C° 0 mm 1 m/S 559 mmHg 86%
    09:00 +16°C° 0 mm 1 m/S 561 mmHg 78%
    10:00 +19°C° 0 mm 1 m/S 562 mmHg 70%
    11:00 +19°C° 0.3 mm 1 m/S 561 mmHg 70%
    12:00 +20°C° 0.3 mm 1 m/S 561 mmHg 70%
    13:00 +19°C° 0.3 mm 2 m/S 560 mmHg 70%
    14:00 +19°C° 0.8 mm 1 m/S 559 mmHg 75%
    15:00 +18°C° 0.8 mm 1 m/S 559 mmHg 80%
    16:00 +16°C° 0.8 mm 1 m/S 558 mmHg 86%
    17:00 +15°C° 0.6 mm 1 m/S 557 mmHg 89%
    18:00 +13°C° 0.6 mm 0 m/S 557 mmHg 93%
    19:00 +12°C° 0.6 mm 0 m/S 557 mmHg 97%
    20:00 +11°C° 0.2 mm 0 m/S 557 mmHg 97%
    21:00 +11°C° 0.2 mm 0 m/S 557 mmHg 97%
    22:00 +11°C° 0.2 mm 0 m/S 557 mmHg 97%
    23:00 +10°C° 0 mm 0 m/S 557 mmHg 96%

    30 Januar, Donnerstag

    Zeit Temperatur Niederschläge Wind Luftdruck Luftfeuchtigkeit
    00:00 +10°C° 0 mm 0 m/S 557 mmHg 96%
    01:00 +10°C° 0 mm 0 m/S 557 mmHg 96%
    02:00 +10°C° 0 mm 0 m/S 556 mmHg 96%
    03:00 +9°C° 0 mm 0 m/S 556 mmHg 96%
    04:00 +9°C° 0 mm 0 m/S 556 mmHg 95%
    05:00 +10°C° 0 mm 1 m/S 556 mmHg 95%
    06:00 +10°C° 0 mm 1 m/S 557 mmHg 94%
    07:00 +11°C° 0 mm 1 m/S 557 mmHg 93%
    08:00 +13°C° 0 mm 1 m/S 559 mmHg 85%
    09:00 +16°C° 0 mm 1 m/S 560 mmHg 76%
    10:00 +19°C° 0 mm 1 m/S 562 mmHg 68%
    11:00 +19°C° 0.2 mm 1 m/S 561 mmHg 69%
    12:00 +19°C° 0.2 mm 1 m/S 561 mmHg 70%
    13:00 +20°C° 0.2 mm 1 m/S 560 mmHg 71%
    14:00 +19°C° 0.7 mm 1 m/S 559 mmHg 76%
    15:00 +18°C° 0.7 mm 1 m/S 558 mmHg 80%
    16:00 +16°C° 0.7 mm 1 m/S 557 mmHg 85%
    17:00 +15°C° 0.5 mm 1 m/S 557 mmHg 88%
    18:00 +14°C° 0.5 mm 1 m/S 557 mmHg 92%
    19:00 +13°C° 0.5 mm 1 m/S 557 mmHg 95%
    20:00 +12°C° 0.2 mm 1 m/S 557 mmHg 95%
    21:00 +12°C° 0.2 mm 1 m/S 557 mmHg 95%
    22:00 +11°C° 0.2 mm 1 m/S 557 mmHg 96%
    23:00 +11°C° 0 mm 1 m/S 557 mmHg 95%

    31 Januar, Freitag

    Zeit Temperatur Niederschläge Wind Luftdruck Luftfeuchtigkeit
    00:00 +10°C° 0 mm 1 m/S 556 mmHg 95%
    01:00 +10°C° 0 mm 1 m/S 556 mmHg 95%
    02:00 +10°C° 0 mm 1 m/S 556 mmHg 94%
    03:00 +10°C° 0 mm 1 m/S 555 mmHg 94%
    04:00 +8°C° 0 mm 2 m/S 555 mmHg 93%
    05:00 +8°C° 0 mm 2 m/S 556 mmHg 92%
    06:00 +9°C° 0 mm 2 m/S 556 mmHg 91%
    07:00 +9°C° 0 mm 2 m/S 557 mmHg 91%
    08:00 +12°C° 0 mm 2 m/S 558 mmHg 80%
    09:00 +15°C° 0 mm 2 m/S 560 mmHg 69%
    10:00 +19°C° 0 mm 1 m/S 561 mmHg 58%
    11:00 +19°C° 0 mm 2 m/S 561 mmHg 54%
    12:00 +20°C° 0 mm 2 m/S 561 mmHg 50%
    13:00 +21°C° 0 mm 2 m/S 561 mmHg 46%
    14:00 +20°C° 0.1 mm 2 m/S 560 mmHg 51%
    15:00 +19°C° 0.1 mm 2 m/S 559 mmHg 56%
    16:00 +19°C° 0.1 mm 2 m/S 558 mmHg 61%
    17:00 +16°C° 0.3 mm 2 m/S 558 mmHg 70%
    18:00 +14°C° 0.3 mm 2 m/S 557 mmHg 79%
    19:00 +12°C° 0.3 mm 1 m/S 557 mmHg 88%
    20:00 +12°C° 0.1 mm 1 m/S 557 mmHg 89%
    21:00 +10°C° 0.1 mm 2 m/S 557 mmHg 90%
    22:00 +9°C° 0.1 mm 2 m/S 557 mmHg 91%
    23:00 +9°C° 0 mm 2 m/S 557 mmHg 91%
    Mehr zeigen